THAICOM 6

Last updated on Tue Oct 08 2024 00:02:39 GMT+0000 (Coordinated Universal Time)

1 39500U 14002A 24281.34409382 -.00000111 00000+0 00000+0 0 9996 2 39500 0.0585 109.2460 0003403 66.4250 43.2136 1.00271686 39262
UTC large
Height (km)
Speed (km/s)
/
Latitude / Longitude
Inclination (degrees)
Orbital Period (minutes)
Azimuth
Elevation
Range (km)
Doppler Factor

Next 0 passes for location: London (51.5072 / 0.1276)

Sorry there are no passes over London.